Flag for Marshall Islands Weather past 2 weeks in Majuro, Marshall Islands

Now
84 °F

Overcast.


Feels Like: 93 °F
Forecast: 83 / 86 °F
Wind: 14 mph from Northeast

Location: Majuro Atoll

Current Time: Dec 22, 2014 at 8:33:57 PM

Latest Report: Dec 22, 2014 at 7:51 PM


Visibility: 15 mi

Pressure: 29.75 "Hg

Humidity: 80%

Dew point: 77 °F

Location of MajuroLocation

Historic Weather in Majuro — Graph

°F

Majuro temperature yesterday

Maximum temperature yesterday: 87 °F (at 10:52 AM)
Minimum temperature yesterday: 79 °F (at 8:54 PM)
Average temperature yesterday: 83 °F

Past Weeks' High & Low Weather Summary

 TemperatureHumidityPressure
High88 °F (Dec 8, 11:52 AM)93% (Dec 21, 8:54 PM)29.88 "Hg (Dec 21, 8:54 PM)
Low78 °F (Dec 11, 4:53 AM)71% (Dec 15, 5:53 PM)29.68 "Hg (Dec 22, 2:52 PM)
Average83 °F82%29.80 "Hg
* Reported Dec 7 6:54 PM — Dec 22 6:52 PM, Majuro, Weather by CustomWeather, © 2014

Note: Actual official high and low records may vary slightly from our data, if they occured in-between our weather recording intervals... More about our weather records

Advertising

Majuro weather history for previous 24 hours

 ConditionsComfort  
Time TempWeatherWind HumidityBarometerVisibility
6:52 PM
Dec 22
84 °FCloudy.12 mph81%29.74 "Hg15 mi
5:51 PM84 °FCloudy.14 mph79%29.72 "Hg15 mi
4:52 PM84 °FCloudy.16 mph79%29.71 "Hg15 mi
3:51 PM84 °FCloudy.17 mph79%29.70 "Hg15 mi
2:52 PM83 °FCloudy.14 mph84%29.68 "Hg15 mi
1:56 PM81 °FCloudy.10 mph91%29.72 "Hg15 mi
12:56 PM80 °FCloudy.18 mph90%29.75 "Hg15 mi
10:50 AM85 °FCloudy.12 mph82%29.78 "Hg15 mi
9:57 AM83 °FCloudy.13 mph83%29.78 "Hg15 mi
8:50 AM82 °FCloudy.14 mph84%29.79 "Hg15 mi
7:52 AM80 °FCloudy.18 mph87%29.78 "Hg15 mi
6:52 AM80 °FSprinkles. Overcast.20 mph91%29.75 "Hg10 mi
5:54 AM81 °FOvercast.17 mph84%29.72 "Hg15 mi
4:50 AM81 °FOvercast.17 mph87%29.72 "Hg15 mi
3:50 AM80 °FSprinkles. Overcast.21 mph89%29.72 "Hg10 mi
2:56 AM79 °FOvercast.21 mph92%29.72 "Hg15 mi
12:56 AM82 °FOvercast.23 mph85%29.76 "Hg15 mi
11:52 PM
Dec 21
80 °FOvercast.23 mph89%29.78 "Hg15 mi
10:50 PM81 °FOvercast.14 mph87%29.79 "Hg15 mi
9:54 PM81 °FOvercast.16 mph87%29.80 "Hg15 mi
8:54 PM79 °FSprinkles. Overcast.16 mph93%29.80 "Hg10 mi
Weather by CustomWeather, © 2014

See weather overviewHow to use our weather pages